Fort Drum, NY

12:15 AM EST on November 22, 2017 (GMT -0500)
Wheeler-Sack Army Air Field

Weather History for KGTB - November, 2013

Change the Weather History Date:

Tuesday, November 5, 2013

  Actual Average Record
Temperature  
Mean Temperature 42 °F -  
Max Temperature 53 °F 45 °F 70 °F (2015)
Min Temperature 32 °F 30 °F 20 °F (2011)
Degree Days  
Heating Degree Days 22    
Moisture  
Dew Point 27 °F    
Average Humidity 54    
Maximum Humidity 73    
Minimum Humidity 43    
Precipitation  
Precipitation 8.31 in - - ()
Sea Level Pressure  
Sea Level Pressure 30.47 in    
Wind  
Wind Speed 11 mph (SSE)    
Max Wind Speed 17 mph    
Max Gust Speed 18 mph    
Visibility 10 miles    
Events      
Averages and records for this station are not official NWS values.
T = Trace of Precipitation, MM = Missing Value Source: NWS Daily Summary

Daily Weather History Graph

Daily Weather History Graph

Search for Another Location

Airport or City:

Trip Planner

Search our weather history database for the weather conditions in past years. The results will help you decide how hot, cold, wet, or windy it might be!

Date:

Astronomy

Nov. 05, 2013 Rise Set
Actual Time 6:45 AM EST 4:47 PM EST
Civil Twilight 6:14 AM EST 5:17 PM EST
Nautical Twilight 5:40 AM EST 5:52 PM EST
Astronomical Twilight 5:06 AM EST 6:25 PM EST
Moon 9:00 AM EST (11/5) 6:43 PM EST (11/5)
Length of Visible Light 11h 03m
Length of Day
10h 02m
Waxing Crescent, 6% of the Moon is Illuminated
Nov 5
Waxing Crescent
Nov 10
First Quarter
Nov 17
Full
Nov 25
Last Quarter
Dec 2
New

Hourly Weather History & Observations

Time (EST) Temp. Windchill Dew Point Humidity Pressure Visibility Wind Dir Wind Speed Gust Speed Precip Events Conditions
12:58 AM 33.8 °F 25.8 °F 18.5 °F 54% 30.54 in 10.0 mi SE 10.4 mph - N/A   Overcast
1:58 AM 33.8 °F 23.2 °F 17.1 °F 50% 30.51 in 10.0 mi SSE 17.3 mph - N/A   Overcast
2:58 AM 33.4 °F 24.3 °F 17.8 °F 53% 30.52 in 10.0 mi SSE 12.7 mph - N/A   Overcast
3:58 AM 33.3 °F 25.1 °F 18.9 °F 56% 30.51 in 10.0 mi SSE 10.4 mph - N/A   Overcast
4:58 AM 32.7 °F 23.9 °F 19.0 °F 57% 30.51 in 10.0 mi SE 11.5 mph - N/A   Mostly Cloudy
5:58 AM 33.1 °F 23.4 °F 18.9 °F 56% 30.52 in 10.0 mi SSE 13.8 mph - N/A   Mostly Cloudy
6:58 AM 32.7 °F 23.0 °F 19.6 °F 58% 30.52 in 10.0 mi SSE 13.8 mph - N/A   Clear
7:58 AM 34.2 °F 25.7 °F 20.5 °F 57% 30.52 in 10.0 mi SSE 11.5 mph - N/A   Clear
8:58 AM 38.8 °F 31.2 °F 22.6 °F 52% 30.52 in 10.0 mi SSE 12.7 mph - N/A   Clear
9:47 AM 44.6 °F 38.1 °F 24.8 °F 46% 30.48 in 10.0 mi SSW 13.8 mph 18.4 mph N/A   Light Drizzle
9:51 AM 44.6 °F 38.4 °F 24.8 °F 46% 30.48 in 10.0 mi SSW 12.7 mph 18.4 mph N/A   Clear
9:58 AM 45.0 °F 38.9 °F 24.6 °F 45% 30.51 in 10.0 mi South 12.7 mph - 0.00 in   Clear
10:49 AM 48.2 °F - 26.6 °F 43% 30.48 in 10.0 mi South 12.7 mph - N/A   Light Drizzle
10:52 AM 48.2 °F - 26.6 °F 43% 30.49 in 10.0 mi South 10.4 mph - N/A   Partly Cloudy
10:58 AM 48.4 °F - 27.0 °F 43% 30.50 in 10.0 mi South 10.4 mph - 0.00 in   Partly Cloudy
11:58 AM 50.9 °F - 28.8 °F 43% 30.48 in 10.0 mi South 9.2 mph - N/A   Scattered Clouds
12:58 PM 50.5 °F - 29.5 °F 44% 30.46 in 10.0 mi South 10.4 mph - N/A   Partly Cloudy
1:58 PM 53.1 °F - 31.3 °F 43% 30.44 in 10.0 mi SSE 10.4 mph - N/A   Clear
2:58 PM 53.8 °F - 33.4 °F 46% 30.44 in 10.0 mi SSE 8.1 mph - N/A   Scattered Clouds
3:58 PM 53.2 °F - 34.5 °F 49% 30.43 in 10.0 mi South 8.1 mph - N/A   Partly Cloudy
4:58 PM 48.6 °F - 34.2 °F 58% 30.42 in 10.0 mi South 8.1 mph - N/A   Clear
5:58 PM 46.0 °F 43.1 °F 34.2 °F 63% 30.42 in 10.0 mi SSE 5.8 mph - N/A   Clear
6:58 PM 45.3 °F 41.1 °F 34.7 °F 66% 30.42 in 10.0 mi SSE 8.1 mph - N/A   Clear
7:58 PM 46.0 °F 42.5 °F 34.9 °F 65% 30.41 in 10.0 mi SSE 6.9 mph - N/A   Clear
8:58 PM 44.4 °F 40.5 °F 35.2 °F 70% 30.41 in 10.0 mi SSE 6.9 mph - N/A   Clear
9:58 PM 43.7 °F 37.3 °F 34.9 °F 71% 30.37 in 10.0 mi SE 12.7 mph - N/A   Clear
10:58 PM 43.2 °F 37.0 °F 34.9 °F 73% 30.36 in 10.0 mi SSE 11.5 mph - 0.02 in   Clear
11:58 PM 43.0 °F 36.8 °F 34.3 °F 72% 30.37 in 10.0 mi SSE 11.5 mph - 8.29 in   Partly Cloudy